Location: Mt. Graham
(32.7020°N, 109.8880°W)
Time: 19:08:21
(UTC-07:00)

ISS - Visible Passes

Search period start: 23 February 2018 00:00
Search period end: 05 March 2018 00:00
Orbit: 402 x 407 km, 51.6° (Epoch: 24 February)

Date Brightness Start Highest point End Pass type
(mag) Time Alt. Az. Time Alt. Az. Time Alt. Az.
24 Feb -2.2 06:11:43 10° SSW 06:14:44 36° SE 06:17:46 10° ENE visible
25 Feb -1.0 05:20:29 10° S 05:22:41 17° SE 05:24:52 10° E visible
26 Feb -3.9 06:03:27 10° SW 06:06:41 68° NW 06:09:56 10° NE visible
27 Feb -3.2 05:14:09 47° SSE 05:14:30 50° SE 05:17:39 10° NE visible
28 Feb -0.4 04:24:38 12° E 04:24:38 12° E 04:24:58 10° ENE visible
28 Feb -2.5 05:57:19 18° WNW 05:58:44 25° NW 06:01:30 10° NNE visible
01 Mar -2.4 05:07:36 31° NNE 05:07:36 31° NNE 05:09:35 10° NE visible
02 Mar -1.6 05:50:23 12° NW 05:50:56 12° NNW 05:52:19 10° N visible
03 Mar -1.2 05:00:23 13° N 05:00:23 13° N 05:00:58 10° NNE visible
